English version (google)  Retour à l'accueil Ecrire à l'auteur du site Runraid : Michel Jourdan


 Visitez La Boutique 



Les prochaines courses


Les derniers résultats

cliquez pour visualiser la page complète relatant la chronologie des éruptions du Piton de la Fournaise
éruptions Piton de la Fournaise


Ile de La Réunion

 Diagonale des Fous 

Ecrire au créateur du site : Michel Jourdan
Contact


2019-04-27 - Trail Le Saint Guiral 60 km

Pour consulter le palmarès d'un coureur, un clic sur son nom !

Vous avez des remarques, corrections, ... sur ces résultats , un clic sur --> pour me transmettre toute information concernant les classements


Trail Le Saint Guiral 60 km - 2019 : classement des 169 finishers
Place Nom Temps Cat. Club Sexe Clt/cat.
Place Nom Temps Cat. Club Sexe Clt/cat.
1 Berger Romain 10:10:45 M23 Team Causses Cevennes M 0
2 Valade Pablo 11:09:15 M23 M 0
3 Millet Pierre 11:22:30 M23 M 0
4 Nayrat Jerome 11:44:55 M45 M 0
5 Guillerm Yann 11:46:51 M40 M 0
6 Tullier Nicolas 11:48:51 M23 Running Conseil Ollioules M 0
7 Marty Gael 12:05:21 M23 M 0
8 Laversanne Sophie 12:05:22 W23 Marseille Trail Club F 1ere F 0
9 Vesseau Damien 12:05:22 M35 Team Enduranceshop 13 M 0
10 Odoul Jerome 12:19:25 M40 Castries Running Club M 0
11 Bourgoin Gilles 12:19:26 M40 M 0
12 Marre Nicolas 12:25:55 M35 Salta Bartas M 0
13 Malvezin David 12:30:31 M35 M 0
14 Poux Christophe 12:50:17 M40 M 0
15 Benech Emmanuel 12:53:20 M40 Ytrac Club Nature Trail M 0
16 Bare Frederic 12:54:11 M45 Portet Athletic Club M 0
17 Andi Grefa Froilan 12:55:46 M23 Maguelone Jogging M 0
18 Rigaud Romain 12:58:29 M40 Team Autour du Trail M 0
19 Huche Clement 13:01:50 M23 M 0
20 Gely Daniel 13:05:34 M45 M 0
21 Baudy Frederic 13:06:53 M35 M 0
22 Rummler Julien 13:21:33 M23 M 0
23 de Meulenaere Valere 13:25:28 M40 M 0
24 Pourrat David 13:30:40 M45 Tram Bessan Running M 0
25 Tisseyre Joseph 13:32:04 M23 M 0
26 Moreira Jerome 13:32:47 M35 M 0
27 Garnier Jerome 13:48:22 M40 Team Fartleck M 0
28 Choplin Johann 13:50:10 M45 M 0
29 Rodrigues Benoit 13:51:31 M45 Moissy-Cramayel Athlet... M 0
30 Klein Guillaume 13:55:18 M23 Esty Run Green M 0
31 Teze Francois 14:00:57 M23 les Traileurs du Guery M 0
32 Boussagol Thomas 14:15:18 M23 M 0
33 Ango Remi 14:19:27 M35 M 0
34 Damesin Julien 14:22:20 M40 Triathlon de la Grande... M 0
35 Turkovics Pierre 14:26:08 M23 Domont Athletisme M 0
36 Helaine Anthony 14:30:22 M40 M 0
37 Geoffroy Julien 14:32:50 M40 M 0
38 Mathieu Jean Claude 14:35:06 M55 Team Cerrotore M 0
39 Rozaz Marc 14:35:07 M40 M 0
40 Gemard Damien 14:51:02 M35 M 0
41 Helion Jeremy 14:52:53 M35 M 0
42 Weishaus Virginie 14:57:43 W35 Menton Marathon Athlet... F 2 F 0
43 Burlaud Pierre 15:03:12 M23 M 0
44 Rodier Andre 15:05:29 M60 Beaumont Atlhetique Club M 0
45 Lorvellec Karine 15:06:25 W45 Menton Maraton F 3 F 0
46 Lucas Francois 15:06:48 M35 M 0
47 Ducheix Xavier 15:09:54 M45 Ytrac Club Nature M 0
48 Kirren Patrice 15:12:08 M55 M 0
49 Pibarot Jerome 15:32:44 M45 M 0
50 Faucher Sebastien 15:33:20 M35 Saint Pantaleon de Larche M 0
51 Salles Sissia 15:37:15 W45 F 4 F 0
52 Vandewoestyne Mathieu 15:39:16 M40 M 0
53 Gentes Angelique 15:40:04 W40 F 5 F 0
54 De Launay Yves 15:41:46 M35 M 0
55 Guy Ghislain 15:41:56 M40 M 0
56 Valette Serge 15:41:56 M55 Acla Alban M 0
57 Lechable Philippe 15:42:01 M45 M 0
58 Fondacci Laurent 15:48:01 M40 Jogging Clud de Veranne M 0
59 Gagne Stephanie 15:48:08 W23 les Traileurs du Guery F 6 F 0
60 Guillet Patrick 15:52:40 M60 M 0
61 Lavergne Jean Michel 15:54:41 M40 M 0
62 Trabut Michael 15:55:42 M23 Club Athletic Brioude M 0
63 Gucker Stephane 15:58:08 M45 M 0
64 Pelissier Sophie 16:07:59 W45 Beaumont Athletique Club F 7 F 0
65 Delguidice Lisa 16:12:49 W23 F 8 F 0
66 Beck Raphael 16:12:49 M40 M 0
67 Horent Dafonseca Guerra Franck 16:19:19 M45 M 0
68 Douville Pascal 16:19:35 M50 M 0
69 Bardet Michel 16:26:52 M60 S.C.A.C. M 0
70 Sagot Julien 16:34:13 M35 M 0
71 Le Gall Erwann 16:34:13 M40 M 0
72 Bardeau Huchet Maureen 16:37:54 W23 F 9 F 0
73 Roche Franck 16:42:42 M40 Beaumont Athletique Club M 0
74 Loubat Jean Paul 16:44:04 M55 M 0
75 Moinet Guillaume 16:44:10 M35 M 0
76 Garcia Yannick 16:44:10 M23 M 0
77 Gemard David 16:45:13 M40 AS Saint-Sylvain D'Anjou M 0
78 Baudouin Nicolas 16:48:17 M35 M 0
79 Favre Philippe 16:50:43 M50 Jogging Club de Veranne M 0
80 Delfini Jean Luc 16:50:44 M35 M 0
81 Franzese Antony 16:57:16 M23 M 0
82 Fenoll Emmanuel 16:57:17 M35 M 0
83 Chatenet Florent 17:02:16 M35 M 0
84 Adobati Anne Marie 17:07:31 W45 F 10 F 0
85 Fabry Gilles 17:09:42 M50 M 0
86 Mirabaud Benoit 17:09:44 M45 M 0
87 Hildebrandt Holger 17:09:44 M40 M 0
88 Le Tohic Maupoux Murielle 17:12:11 W50 F 11 F 0
89 Betous Jeremy 17:13:46 M35 M 0
90 Teyssandie Sophie 17:18:10 W45 F 12 F 0
91 Rambaud Franck 17:18:10 M50 M 0
92 Le Goff Frederic 17:22:35 M35 M 0
93 Menez Jean Baptiste 17:22:35 M35 M 0
94 Dublanc Francis 17:22:41 M35 Euskalraid M 0
95 Lopez Renaud 17:26:04 M23 M 0
96 Letessier Ludovic 17:27:38 M35 M 0
97 Lemoult Francois 17:28:43 M50 M 0
98 Cavailles Sebastien 17:29:21 M40 Desperado Trail M 0
99 Leger Patrick 17:34:27 M55 EPA 86 M 0
100 Godefroy Philippe 17:41:53 M50 M 0
101 Genty Philippe 17:42:34 M45 Mauves Attitudes Runni... M 0
102 Thibart Sebastien 17:43:50 M23 M 0
103 Benoit Laurent 17:44:23 M50 M 0
104 Catak Abdullah 17:49:48 M45 S/L Athletisme St Pant... M 0
105 Quetel Pierre 17:49:48 M35 Athletisme St Pantaleon M 0
106 Mathis Sylvie 17:51:09 W45 F 13 F 0
107 Chavaroche Olivier 18:05:53 M45 M 0
108 Gachon Nicolas 18:13:14 M35 M 0
109 Krier Benoit 18:22:45 M45 M 0
110 Bruckner Raymond 18:26:28 M55 Team Raid Light M 0
111 Martin Frederic 18:27:57 M45 M 0
112 Torres Alain 18:30:02 M55 Assp Vergeze M 0
113 Kanmacher Philippe 18:30:02 M50 M 0
114 Bosc Bierne Benoit 18:31:49 M35 M 0
115 Audigier Jonathan 18:31:49 M23 M 0
116 Gaffet Eric 18:38:56 M50 Athletique Saint Panta... M 0
117 Pestourie Eric 18:38:58 M50 Athletisme de Saint-Pa... M 0
118 Lepot Jean Yves 18:40:15 M45 M 0
119 Nativoha Jean Eloi 18:40:15 M50 M 0
120 Lepot Benedicte 18:40:16 W45 F 14 F 0
121 Morel Christophe 18:40:21 M50 M 0
122 Picard Laurent 18:51:48 M45 M 0
123 Biotteau David 18:54:49 M23 M 0
124 De Launay Emilie 19:02:09 W35 F 15 F 0
125 Mayeur Loic 19:02:10 M40 M 0
126 Testud Jerome 19:07:00 M35 M 0
127 Arnal Gilles 19:07:02 M35 M 0
128 Massalve Thierry 19:07:03 M50 M 0
129 Mousset Jean Christophe 19:27:38 M40 M 0
130 Seguro Stephane 19:27:38 M45 M 0
131 Barranco Yann 19:35:48 M35 M 0
132 Burguiere Yann 19:53:32 M45 Esperance Favergienne M 0
133 Fortannier Johnny 20:06:20 M35 M 0
134 Tramier Christophe 20:22:22 M50 M 0
135 Barbeau Laurent 20:22:23 M45 M 0
136 Marcenne Anne 20:31:23 W45 Entente Poitiers Atle F 16 F 0
137 Franchet Yann 20:54:21 M50 M 0
138 Duprat Patrick 20:54:24 M45 Team 12 M 0
139 Renoirte Charles 20:59:13 M45 M 0
140 Dewet Philippe 21:06:27 M50 M 0
141 Saighi Amel 21:12:28 W45 F 17 F 0
142 Blain Frederic 21:12:28 M45 M 0
143 Duhamel Bruno 21:20:27 M60 M 0
144 Boussard Guillaume 21:20:29 M35 Montville Running Club M 0
145 Goossens Annick 21:31:07 W50 F 18 F 0
146 Sales Francois 21:31:08 M50 M 0
147 Carrer Anthony 21:33:43 M35 M 0
148 Huard David 21:33:46 M40 M 0
149 Gerbou Ludovic 21:36:14 M40 M 0
150 Pitance Simon 21:40:31 M23 M 0
151 Le Cunff Herve 21:41:37 M50 M 0
152 Brillault Franck 21:54:57 M45 M 0
153 Muller Catherine 21:54:57 W50 F 19 F 0
154 Guerrero Julien 21:58:42 M35 Caps Payrin / les Martys M 0
155 Gautier Alain 22:15:19 M40 M 0
156 Gautier Olivier 22:15:19 M50 M 0
157 Lacroix Lagrandeur Cedric 22:51:20 M45 M 0
158 Hamel Matthias 22:51:21 M40 M 0
159 Paquet Arnaud 23:25:23 M45 Vernouillet Athle M 0
160 Amosse Romain 23:30:30 M35 M 0
161 Bouillot Stephanie 24:15:15 W40 Courir Cesson VSD F 20 F 0
162 Bouillot Cedric 24:15:17 M23 Courir Cesson - Vert S... M 0
163 Boydens Wim 24:18:56 M40 M 0
164 Gallo Jean Remi 24:55:53 M40 M 0
165 Negre David 25:07:40 M45 Dynamic Sporting Club M 0
166 Trento Karine 25:07:41 W45 Dynamic Sporting Club F 21 F 0
167 Mollicone David 25:13:50 M50 M 0
168 Denaules Jean Paul 25:15:50 M55 Courir Cesson Vert St ... M 0
169 Machet Dominique 25:33:38 M45 M 0


ReferencementCe site est listé dans la catégorie Sport : Sports extrêmes Dictionnaire
| Accueil | La Réunion  Vue du ciel | Météo | Cyclones | Volcan | Cirques de Mafate , Cilaos , Salazie | Photos Randonnées | Randonnées Réunion: Randos Espiègle , Courses montagne | Diagonale des Fous |  Marathon des Sables | Voyages Les stats du site | Fonds écran | Plan du site | Blog de runraid | Galerie photos Sport Réunion |